Weather in Osintsevo

Russia / Novosibirsk Oblast     55°29′50″N   77°14′01″E
temp.,
°C
wind,
m/s
gust,
m/s
humid.,
%
clouds,
%
prec.,
mm/h
press.,
hPa
HPBL,
m
27 february, sat
sat2701:00−28wsw359897 0.1 1034130
04:00−28sw359899 0.0 1034128
07:00−31sw339893 0.0 103528
10:00−32sw339824 0.0 103546
13:00−27sw349230 0.0 1036235
16:00−24ssw349396 0.0 1036315
19:00−27s349781 0.0 103540
22:00−30s34980 0.0 103652
28 february, sun
sun2801:00−30s349820 0.0 103547
04:00−30sse349978 0.0 103348
07:00−29se4610087 0.0 103296
10:00−26se5995100 0.0 1030245
13:00−23se6994100 0.0 1027293
16:00−19ese6994100 0.0 1024368
19:00−17ese61195100 0.4 1021458
22:00−16e61194100 0.1 1017349
1 march, mon
mon101:00−14e61295100 0.5 1013348
04:00−12ene71295100 1.1 1009367
07:00−11ene71294100 2.2 1006355
10:00−12ne61193100 0.5 1006355
13:00−11ne6994100 0.9 1008366
16:00−11ne5892100 0.2 1009408
19:00−12nne4795100 0.4 1012373
22:00−14nne379593 0.3 1014192
2 march, tue
tue201:00−17ne339774 0.3 101637
04:00−19ene229983 0.0 101720
07:00−17ese129791 0.2 101828
10:00−17ese129691 0.2 101873
13:00−14se229092 0.3 1018284
16:00−12ese1187100 0.1 1017376
19:00−14e2295100 0.1 101627
22:00−15e229694 0.1 101533
3 march, wed
wed301:00−16e119797 0.3 101520
04:00−16ne129790 0.2 101421
07:00−16ene129792 0.4 101422
10:00−15ne2296100 0.2 101591
13:00−12ne118998 0.3 1016297
16:00−11nnw1185100 0.1 1017451
19:00−14wnw1194100 0.1 101920
22:00−17sw119999 0.0 102020